This demonstration page uses our WeatherBlox Daily Observations layout. Learn more.

Left ArrowRight Arrow

38.80484, -77.04692

Hourly Observations for October 29, 2019

Temp ( °F °C ) Dew Point ( °F °C ) Humidity (%) Winds ( mph kmh ) Pressure ( in mb ) Visibility ( mi km ) Precip ( " mm )
12:52 am 00:52 Cloudy 62 16.7 55 12.8 78 78 ESE 9 15 30.24 1024 10 16 0.00 0.00
1:52 am 01:52 Cloudy 60 15.6 57 13.9 90 90 ESE 7 11 30.24 1024 10 16 0.00 0.00
2:52 am 02:52 Mostly Cloudy 60 15.6 56 13.3 86 86 ESE 7 11 30.25 1024 10 16 0.00 0.00
3:52 am 03:52 Mostly Cloudy 59 15 56 13.3 90 90 E 6 9 30.24 1024 10 16 0.00 0.00
4:52 am 04:52 Mostly Cloudy 59 15 56 13.3 90 90 ESE 8 13 30.24 1024 10 16 0.00 0.00
5:52 am 05:52 Cloudy 59 15 54 12.2 83 83 ESE 12 19 30.24 1024 10 16 0.00 0.00
6:52 am 06:52 Mostly Cloudy 59 15 54 12.2 83 83 E 5 7 30.24 1024 10 16 0.00 0.00
7:52 am 07:52 Mostly Cloudy 61 16.1 53 11.7 75 75 Calm 30.25 1024 10 16 0.00 0.00
8:52 am 08:52 Mostly Cloudy 61 16.1 54 12.2 78 78 Calm 30.28 1025 10 16 0.00 0.00
9:52 am 09:52 Cloudy 62 16.7 55 12.8 78 78 ENE 5 7 30.28 1026 10 16 0.00 0.00
10:52 am 10:52 Cloudy 64 17.8 55 12.8 73 73 ESE 3 6 30.28 1026 10 16 0.00 0.00
11:52 am 11:52 Cloudy 67 19.4 53 11.7 61 61 SE 3 6 30.28 1025 10 16 0.00 0.00
12:52 pm 12:52 Cloudy 68 20 53 11.7 59 59 SSW 7 11 30.27 1025 10 16 0.00 0.00
1:52 pm 13:52 Cloudy 68 20 53 11.7 59 59 S 6 9 30.25 1024 10 16 0.00 0.00
3:52 pm 15:52 Cloudy 66 18.9 54 12.2 65 65 S 5 7 30.23 1024 10 16 0.00 0.00
4:52 pm 16:52 Cloudy 66 18.9 54 12.2 65 65 S 5 7 30.24 1024 10 16 0.00 0.00
5:52 pm 17:52 Cloudy 65 18.3 54 12.2 68 68 S 3 6 30.24 1024 10 16 0.00 0.00
6:52 pm 18:52 Cloudy 64 17.8 56 13.3 75 75 ESE 6 9 30.24 1024 10 16 0.00 0.00
7:52 pm 19:52 Cloudy 62 16.7 53 11.7 73 73 Calm 30.25 1024 10 16 0.00 0.00
8:52 pm 20:52 Cloudy 63 17.2 53 11.7 70 70 Calm 30.26 1025 10 16 0.00 0.00
10:52 pm 22:52 Mostly Cloudy 62 16.7 54 12.2 75 75 Calm 30.26 1025 10 16 0.00 0.00
11:52 pm 23:52 Mostly Cloudy 61 16.1 54 12.2 78 78 Calm 30.26 1025 10 16 0.00 0.00

Powered by AerisWeather